OpenBCM V1.08-5-g2f4a (Linux)

Packet Radio Mailbox

IZ3LSV

[San Dona' di P. JN]

 Login: GUEST





  
I0OJJ  > KEPS     27.06.25 02:43l 341 Lines 16337 Bytes #99 (0) @ AMSAT
BID : ORB25178.1
Read: GUEST
Subj: 2Line Orbital Elements 25178.AMSAT
Path: IZ3LSV<IK6IHL<IK7NXU<HB9ON<DK0WUE<PD0LPM<PI8ZTM<PI8LAP<VE2PKT<PY2BIL<
      LU9DCE<VE3TOK<IR0AAB<I0OJJ
Sent: 250627/0025z @:I0OJJ.ITA.EU [Rome] obcm1.08-10-g596e
From: I0OJJ @ I0OJJ.ITA.EU (Gustavo)
To:   KEPS @ AMSAT
X-Info: This message was generated automatically


QST de W1STR

AMSAT Orbital Elements for Amateur Satellites in TLE Format
From Orbital Analysis Office
New England Sci-Tech STEM Education Center
Natick, MA June 27, 2025
To all radio amateurs


These element sets describe the orbits of various satellites 
in use by the amateur radio community. For details see:
www.amsat.org/keplerian-elements-formats/

A daily update of element sets is available at:
www.amsat.org/tle/daily-bulletin.txt
or without bulletin text:
www.amsat.org/tle/dailytle.txt


AO-07
1 07530U 74089B   25177.50398927 -.00000041  00000-0  36221-4 0  9992
2 07530 101.9928 181.9482 0012658  89.9406  64.9399 12.53689832315947
UO-11
1 14781U 84021B   25177.39657587  .00000885  00000-0  98777-4 0  9991
2 14781  97.7551 143.4335 0006321 284.4615  75.5901 14.89428175204149
AO-27
1 22825U 93061C   25177.70044226  .00000076  00000-0  46349-4 0  9998
2 22825  98.7359 239.3409 0009412  66.6527 293.5644 14.30804375656432
FO-29
1 24278U 96046B   25177.68292506  .00000002  00000-0  41423-4 0  9998
2 24278  98.5738  69.3234 0348959 298.3949  58.2427 13.53249828425334
NOAA-15
1 25338U 98030A   25177.85008562  .00000175  00000-0  89785-4 0  9991
2 25338  98.5341 202.5649 0009255 313.7045  46.3369 14.26988310410867
GO-32
1 25397U 98043D   25177.41101349  .00000026  00000-0  31500-4 0  9996
2 25397  98.9710 156.8820 0001916 128.5429 231.5921 14.24318662400688
ISS
1 25544U 98067A   25177.76577147  .00008867  00000-0  16169-3 0  9991
2 25544  51.6384 259.5976 0002004 283.7673 222.4775 15.50259526516645
NO-44
1 26931U 01043C   25177.48109362  .00000082  00000-0  61712-4 0  9995
2 26931  67.0512  84.1420 0006154 276.7361  83.3040 14.31741762239526
SO-50
1 27607U 02058C   25177.35922199  .00000980  00000-0  13938-3 0  9993
2 27607  64.5517 148.7398 0058280 330.3500  29.4304 14.81664178211719
CO-55
1 27844U 03031E   25177.47298641  .00000211  00000-0  11077-3 0  9998
2 27844  98.6753 185.5282 0010503 133.2806 226.9250 14.24007519141047
CO-57
1 27848U 03031J   25175.95305241  .00000185  00000-0  10087-3 0  9998
2 27848  98.6783 184.0221 0009980 153.5945 206.5744 14.23339890140553
RS-22
1 27939U 03042A   25177.87797616  .00000655  00000-0  11177-3 0  9998
2 27939  98.3292 347.7483 0010522 320.3241 176.0087 14.72387696163378
CO-58
1 28895U 05043F   25177.38710954  .00000981  00000-0  16799-3 0  9996
2 28895  98.2517 321.9492 0013295 251.7783 108.1976 14.71058812 49416
CO-65
1 32785U 08021C   25177.56491603  .00002549  00000-0  18610-3 0  9991
2 32785  97.7856 148.8566 0010800 145.5013 214.6915 15.04560444931638
CO-66
1 32791U 08021J   25176.44897711  .00007399  00000-0  35666-3 0  9992
2 32791  97.7274 156.8474 0005773 107.5492 252.6373 15.19014243932906
RS-30
1 32953U 08025A   25177.86594301  .00000032  00000-0  15853-3 0  9995
2 32953  82.5016 216.4282 0019335  12.2226 347.9319 12.43165680775682
NOAA-19
1 33591U 09005A   25177.83093686  .00000154  00000-0  10633-3 0  9996
2 33591  98.9967 242.6318 0012903 318.3797  41.6392 14.13381872844548
SRMSAT
1 37841U 11058D   25177.37036809  .00000355  00000-0  48760-4 0  9998
2 37841  19.9732  52.9389 0011728 249.4011 267.0457 14.11440512707482
ZACUBE-1
1 39417U 13066B   25177.83449959  .00004248  00000-0  36923-3 0  9997
2 39417  97.7815 134.7574 0043860 357.2907   2.8070 14.96796453627497
Delfi-N3xt
1 39428U 13066N   25177.50146235  .00004484  00000-0  45769-3 0  9994
2 39428  97.8345  94.9650 0083137 305.6610  53.6886 14.88584308621598
GOMX-1
1 39430U 13066Q   25177.87126062  .00001395  00000-0  22197-3 0  9991
2 39430  97.6819  35.4734 0133344 136.6178 224.5617 14.67694033617944
LO-74
1 39440U 13066AA  25177.80252734  .00002605  00000-0  26589-3 0  9995
2 39440  97.8501 122.2447 0063291 122.3908 238.3455 14.90022884625203
AO-73
1 39444U 13066AE  25177.79623239  .00004518  00000-0  33859-3 0  9992
2 39444  97.7808 139.7794 0041371 330.5377  29.3516 15.02527516626766
DTUSAT-2
1 40030U 14033W   25177.40646862  .00005302  00000-0  34460-3 0  9996
2 40030  98.0556 150.0412 0009387  13.7690 346.3791 15.08443704598931
EO-80
1 40032U 14033Y   25177.55846799  .00004034  00000-0  26279-3 0  9995
2 40032  98.0436 149.8324 0007139 311.1814  48.8796 15.08527704598936
LILACSAT-2
1 40908U 15049K   25177.83867655  .00009109  00000-0  23574-3 0  9993
2 40908  97.5042 198.6044 0011099  98.8402 261.4100 15.39245648540889
IO-86
1 40931U 15052B   25151.18580175  .00001241  00000-0  78118-4 0  9996
2 40931   6.0006  24.0987 0012733 338.8432  21.1169 14.78805930523047
Horyu-4
1 41340U 16012D   25177.81371223  .00017845  00000-0  46616-3 0  9992
2 41340  30.9975  15.9842 0006071 245.6235 114.3777 15.37504692515448
Lapan A3
1 41603U 16040E   25177.83306560  .00002539  00000-0  89908-4 0  9995
2 41603  97.1364 181.7645 0010280 198.4118 161.6753 15.29959522500420
CAS-2T
1 41847U 16066G   25177.45714752  .00001291  00000-0  19064-3 0  9996
2 41847  98.4199 251.7721 0347022 127.3639 235.9696 14.43533218453455
CAS-4B
1 42759U 17034B   25177.57823789  .00055486  00000-0  53689-3 0  9995
2 42759  43.0045 220.4070 0019639  45.5974 314.6496 15.65342911445263
CAS-4A
1 42761U 17034D   25177.53315672  .00059649  00000-0  54502-3 0  9991
2 42761  43.0081 217.6385 0020634  50.3778 309.8906 15.66711448445286
TechnoSat
1 42829U 17042E   25177.43482416  .00001551  00000-0  12315-3 0  9990
2 42829  97.3854 345.3397 0015469 215.4702 144.5496 15.01774414433257
AO-91
1 43017U 17073E   25177.61596959  .00006174  00000-0  31375-3 0  9995
2 43017  97.5224  47.9577 0173748 108.4051 253.6154 15.04954392411772
S-Net D
1 43186U 18014G   25177.44190218  .00002756  00000-0  16439-3 0  9993
2 43186  97.5616  80.1772 0009600 156.9131 203.2532 15.11956153404927
S-Net B
1 43187U 18014H   25177.71225073  .00002820  00000-0  16816-3 0  9993
2 43187  97.5622  80.4174 0010456 152.3040 207.8749 15.11937992404968
S-Net A
1 43188U 18014J   25177.70695660  .00002799  00000-0  16681-3 0  9991
2 43188  97.5628  80.5645 0010306 152.9383 207.2386 15.11962477404966
S-Net C
1 43189U 18014K   25177.71469624  .00002854  00000-0  17012-3 0  9993
2 43189  97.5645  80.5893 0012022 147.2448 212.9530 15.11933642403513
Ten-Koh
1 43677U 18084G   25177.39938169  .00001360  00000-0  11272-3 0  9994
2 43677  98.0853 350.3209 0006846 193.8585 166.2450 15.00637163362767
PO-101
1 43678U 18084H   25177.81798542  .00001253  00000-0  11042-3 0  9997
2 43678  98.1026 354.6004 0007983 224.9354 135.1222 14.98386858362966
QO-100
1 43700U 18090A   25177.36934845  .00000140  00000-0  00000-0 0  9991
2 43700   0.0231  11.5549 0002326 127.9784 293.9953  1.00273619 24104
MinXSS-2
1 43758U 18099A   25177.44520284  .00012518  00000-0  48588-3 0  9998
2 43758  97.5014 243.5389 0013295  98.3057 261.9689 15.26156316359544
AO-95
1 43770U 18099N   25177.66272720  .00006511  00000-0  32780-3 0  9998
2 43770  97.4904 235.5613 0011711 146.7543 213.4429 15.17480758359145
RANGE-A
1 43773U 18099R   25177.57446988  .00002684  00000-0  17238-3 0  9998
2 43773  97.4469 225.4839 0012715 129.1241 231.1121 15.09215744358784
MOVE-II
1 43780U 18099Y   25177.73650770  .00489127  00000-0  17547-2 0  9993
2 43780  97.4630 254.8317 0006217 222.8449 137.2338 15.87578720360512
SNUSat 2
1 43782U 18099AA  25177.38591260  .00005263  00000-0  28620-3 0  9994
2 43782  97.4585 231.9015 0013674  96.4011 263.8779 15.14818914359042
SnugLite
1 43784U 18099AC  25177.42551024  .00007148  00000-0  35652-3 0  9992
2 43784  97.4400 231.5349 0005177  99.2177 260.9642 15.17818675359199
ITASat 1
1 43786U 18099AE  25177.60859942  .00004529  00000-0  25872-3 0  9997
2 43786  97.4556 231.5796 0015468 142.9021 217.3283 15.13106478359034
EAGLET 1
1 43790U 18099AJ  25177.65735182  .00002494  00000-0  16065-3 0  9999
2 43790  97.4751 231.5278 0013443 127.1343 233.1117 15.09171629358647
ESEO
1 43792U 18099AL  25177.38250221  .00000891  00000-0  70987-4 0  9990
2 43792  97.4476 224.3004 0015280 103.0550 257.2382 15.02673623358346
CSIM
1 43793U 18099AM  25177.77060531  .00088319  00000-0  49626-3 0  9993
2 43793  97.4792 257.0459 0005094 147.8735 212.2843 15.78985478360352
JO-97
1 43803U 18099AX  25177.09733273  .00008557  00000-0  38687-3 0  9991
2 43803  97.4653 236.0280 0009084  90.9335 269.2942 15.21142107359280
Suomi 100
1 43804U 18099AY  25177.59981961  .00006870  00000-0  33399-3 0  9997
2 43804  97.4718 235.7742 0013943  90.6639 269.6193 15.18654444359285
ISAT
1 43879U 18111D   25177.56256231  .00014582  00000-0  49712-3 0  9991
2 43879  97.5954  92.3367 0010353 129.7203 230.4951 15.30423286356291
UWE-4
1 43880U 18111E   25177.71915277  .00010853  00000-0  42008-3 0  9990
2 43880  97.5897  90.8545 0013063 142.7912 217.4234 15.26294082354240
Sparrow
1 43881U 18111F   25177.20401114  .00015145  00000-0  49685-3 0  9992
2 43881  97.6102  94.9126 0007366 161.6842 198.4665 15.31682976356339
Prox-1
1 44339U 19036A   25177.60719466  .00007276  00000-0  90109-3 0  9997
2 44339  23.9982 309.9256 0006751 270.6468  89.3255 14.80243300320545
SONATE
1 44400U 19038Q   25177.63322381  .00782922  34635-3  80184-3 0  9991
2 44400  97.6684 207.2234 0009117 191.4007 168.7071 16.10770273332309
Taurus 1
1 44530U 19059C   25177.85860437  .00004237  00000-0  78220-3 0  9991
2 44530  98.6090 318.0743 0008366 349.3555  10.7468 14.66008469306473
Duchifat 3
1 44854U 19089C   25177.59598258  .00032817  00000-0  61363-3 0  9998
2 44854  36.9415 246.8971 0003365 105.1227 254.9902 15.47818091305583
